| time (UTC) | temp F | wind direction | speed knots | gust knots | rain 1hr in | rain 24hr in | rain mn in | humidity % | barometer mb |
| 20260504024024 | 49 | 360 | 6.1 | 8.7 | 0.00 | 0.00 | 0.00 | 58 | 1010.6 |
| 20260504023522 | 49 | 202 | 5.2 | 7.8 | 0.00 | 0.00 | 0.00 | 58 | 1010.6 |
| 20260504023022 | 49 | 197 | 6.1 | 9.6 | 0.00 | 0.00 | 0.00 | 57 | 1010.6 |
| 20260504022521 | 49 | 204 | 6.1 | 10.4 | 0.00 | 0.00 | 0.00 | 57 | 1010.7 |
| 20260504022025 | 50 | 211 | 6.1 | 10.4 | 0.00 | 0.00 | 0.00 | 57 | 1010.7 |
| 20260504021526 | 50 | 197 | 6.1 | 9.6 | 0.00 | 0.00 | 0.00 | 57 | 1010.7 |
| 20260504021020 | 49 | 213 | 5.2 | 8.7 | 0.00 | 0.00 | 0.00 | 57 | 1010.7 |
| 20260504020520 | 50 | 200 | 5.2 | 7.8 | 0.00 | 0.00 | 0.00 | 57 | 1010.7 |
| 20260504020020 | 50 | 204 | 6.1 | 8.7 | 0.00 | 0.00 | 0.00 | 57 | 1010.7 |
| 20260504015024 | 50 | 198 | 5.2 | 10.4 | 0.00 | 0.00 | 0.00 | 56 | 1010.6 |
| 20260504014521 | 50 | 218 | 6.1 | 7.8 | 0.00 | 0.00 | 0.00 | 56 | 1010.7 |
| 20260504014021 | 50 | 215 | 6.1 | 8.7 | 0.00 | 0.00 | 0.00 | 56 | 1010.6 |
| 20260504013523 | 50 | 360 | 5.2 | 8.7 | 0.00 | 0.00 | 0.00 | 56 | 1010.6 |
| 20260504013021 | 50 | 198 | 5.2 | 8.7 | 0.00 | 0.00 | 0.00 | 55 | 1010.6 |
| 20260504012520 | 50 | 360 | 4.3 | 7.0 | 0.00 | 0.00 | 0.00 | 56 | 1010.5 |
| 20260504012021 | 51 | 196 | 4.3 | 7.8 | 0.00 | 0.00 | 0.00 | 55 | 1010.5 |
| 20260504011519 | 51 | 360 | 4.3 | 7.8 | 0.00 | 0.00 | 0.00 | 54 | 1010.5 |
| 20260504011019 | 51 | 194 | 4.3 | 7.0 | 0.00 | 0.00 | 0.00 | 54 | 1010.6 |
| 20260504010518 | 52 | 211 | 4.3 | 12.2 | 0.00 | 0.00 | 0.00 | 53 | 1010.6 |
| 20260504010021 | 52 | 209 | 5.2 | 12.2 | 0.00 | 0.00 | 0.00 | 52 | 1010.6 |
| 20260504005018 | 52 | 203 | 5.2 | 11.3 | 0.00 | 0.00 | 0.00 | 52 | 1010.5 |
| 20260504004522 | 52 | 360 | 6.1 | 11.3 | 0.00 | 0.00 | 0.00 | 52 | 1010.5 |
| 20260504004017 | 52 | 236 | 7.8 | 11.3 | 0.00 | 0.00 | 0.00 | 51 | 1010.5 |
| 20260504003516 | 52 | 225 | 3.5 | 13.9 | 0.00 | 0.00 | 0.00 | 51 | 1010.5 |
| 20260504003017 | 53 | 246 | 7.0 | 13.9 | 0.00 | 0.00 | 0.00 | 51 | 1010.5 |
| 20260504002516 | 53 | 213 | 5.2 | 10.4 | 0.00 | 0.00 | 0.00 | 51 | 1010.6 |
| 20260504002016 | 53 | 252 | 6.1 | 12.2 | 0.00 | 0.00 | 0.00 | 50 | 1010.5 |
| 20260504001517 | 53 | 223 | 7.0 | 12.2 | 0.00 | 0.00 | 0.00 | 50 | 1010.4 |
| 20260504001016 | 53 | 222 | 6.1 | 12.2 | 0.00 | 0.00 | 0.00 | 50 | 1010.5 |
| 20260504000516 | 53 | 243 | 6.1 | 11.3 | 0.00 | 0.00 | 0.00 | 49 | 1010.4 |
| 20260504000016 | 53 | 229 | 7.0 | 11.3 | 0.00 | 0.00 | 0.00 | 49 | 1010.4 |
| 20260503235015 | 54 | 223 | 6.1 | 13.9 | 0.00 | 0.00 | 0.00 | 49 | 1010.5 |
| 20260503234526 | 54 | 230 | 6.1 | 13.9 | 0.00 | 0.00 | 0.00 | 48 | 1010.5 |
| 20260503234015 | 54 | 227 | 7.8 | 13.9 | 0.00 | 0.00 | 0.00 | 48 | 1010.5 |
| 20260503233514 | 54 | 207 | 7.0 | 13.0 | 0.00 | 0.00 | 0.00 | 49 | 1010.6 |
| 20260503233014 | 54 | 272 | 4.3 | 13.0 | 0.00 | 0.00 | 0.00 | 48 | 1010.5 |
| 20260503232514 | 54 | 249 | 6.1 | 17.4 | 0.00 | 0.00 | 0.00 | 48 | 1010.6 |
| 20260503232013 | 54 | 226 | 6.1 | 17.4 | 0.00 | 0.00 | 0.00 | 47 | 1010.5 |
| 20260503231514 | 54 | 265 | 9.6 | 15.6 | 0.00 | 0.00 | 0.00 | 47 | 1010.5 |
| 20260503231017 | 54 | 250 | 7.8 | 13.0 | 0.00 | 0.00 | 0.00 | 48 | 1010.6 |
| 20260503230516 | 54 | 234 | 5.2 | 10.4 | 0.00 | 0.00 | 0.00 | 48 | 1010.6 |
| 20260503230013 | 54 | 252 | 7.8 | 19.1 | 0.00 | 0.00 | 0.00 | 47 | 1010.6 |
| 20260503225018 | 54 | 225 | 7.0 | 13.0 | 0.00 | 0.00 | 0.00 | 47 | 1010.6 |
| 20260503224515 | 54 | 244 | 7.0 | 14.8 | 0.00 | 0.00 | 0.00 | 47 | 1010.6 |
| 20260503224015 | 54 | 224 | 9.6 | 14.8 | 0.00 | 0.00 | 0.00 | 46 | 1010.6 |
| 20260503223521 | 54 | 225 | 7.8 | 13.0 | 0.00 | 0.00 | 0.00 | 47 | 1010.7 |
| 20260503223014 | 54 | 244 | 5.2 | 12.2 | 0.00 | 0.00 | 0.00 | 46 | 1010.7 |
| 20260503222514 | 54 | 236 | 7.0 | 13.0 | 0.00 | 0.00 | 0.00 | 46 | 1010.7 |
| 20260503222017 | 54 | 257 | 7.0 | 13.0 | 0.00 | 0.00 | 0.00 | 46 | 1010.7 |
| 20260503221513 | 54 | 252 | 5.2 | 9.6 | 0.00 | 0.00 | 0.00 | 47 | 1010.7 |
| 20260503221015 | 54 | 213 | 5.2 | 10.4 | 0.00 | 0.00 | 0.00 | 47 | 1010.7 |
| 20260503220515 | 54 | 252 | 7.0 | 17.4 | 0.00 | 0.00 | 0.00 | 46 | 1010.7 |
| 20260503220034 | 54 | 360 | 8.7 | 17.4 | 0.00 | 0.00 | 0.00 | 46 | 1010.7 |
| 20260503215013 | 55 | 249 | 7.8 | 14.8 | 0.00 | 0.00 | 0.00 | 46 | 1010.7 |
| 20260503214511 | 55 | 210 | 4.3 | 14.8 | 0.00 | 0.00 | 0.00 | 46 | 1010.7 |
| 20260503214011 | 55 | 236 | 7.0 | 15.6 | 0.00 | 0.00 | 0.00 | 46 | 1010.7 |
| 20260503213514 | 55 | 213 | 8.7 | 15.6 | 0.00 | 0.00 | 0.00 | 45 | 1010.6 |
| 20260503213013 | 55 | 212 | 10.4 | 18.2 | 0.00 | 0.00 | 0.00 | 45 | 1010.7 |
| 20260503212512 | 56 | 205 | 10.4 | 18.2 | 0.00 | 0.00 | 0.00 | 44 | 1010.5 |
| 20260503212011 | 56 | 204 | 6.1 | 15.6 | 0.00 | 0.00 | 0.00 | 45 | 1010.5 |
| 20260503211512 | 56 | 260 | 10.4 | 15.6 | 0.00 | 0.00 | 0.00 | 43 | 1010.5 |
| 20260503211011 | 55 | 229 | 7.8 | 13.9 | 0.00 | 0.00 | 0.00 | 43 | 1010.5 |
| 20260503210510 | 56 | 223 | 7.8 | 13.9 | 0.00 | 0.00 | 0.00 | 42 | 1010.4 |
| 20260503210009 | 56 | 288 | 7.0 | 11.3 | 0.00 | 0.00 | 0.00 | 44 | 1010.5 |
| 20260503205011 | 55 | 257 | 7.0 | 18.2 | 0.00 | 0.00 | 0.00 | 43 | 1010.6 |
| 20260503204510 | 55 | 271 | 10.4 | 18.2 | 0.00 | 0.00 | 0.00 | 43 | 1010.7 |
| 20260503204014 | 55 | 229 | 7.8 | 17.4 | 0.00 | 0.00 | 0.00 | 41 | 1010.8 |
| 20260503203509 | 55 | 250 | 6.1 | 16.5 | 0.00 | 0.00 | 0.00 | 44 | 1010.7 |
| 20260503203020 | 56 | 254 | 8.7 | 15.6 | 0.00 | 0.00 | 0.00 | 42 | 1010.9 |
| 20260503202508 | 55 | 245 | 8.7 | 15.6 | 0.00 | 0.00 | 0.00 | 42 | 1010.9 |
| 20260503202008 | 55 | 251 | 5.2 | 15.6 | 0.00 | 0.00 | 0.00 | 43 | 1011.0 |
| 20260503201508 | 55 | 249 | 8.7 | 20.0 | 0.00 | 0.00 | 0.00 | 42 | 1011.0 |
| 20260503201011 | 56 | 246 | 7.8 | 13.9 | 0.00 | 0.00 | 0.00 | 42 | 1011.1 |
| 20260503200506 | 56 | 203 | 5.2 | 15.6 | 0.00 | 0.00 | 0.00 | 42 | 1011.1 |
| 20260503200005 | 56 | 250 | 8.7 | 16.5 | 0.00 | 0.00 | 0.00 | 42 | 1011.2 |
| 20260503195003 | 55 | 247 | 7.0 | 13.9 | 0.00 | 0.00 | 0.00 | 42 | 1011.4 |
| 20260503194503 | 55 | 245 | 7.8 | 17.4 | 0.00 | 0.00 | 0.00 | 43 | 1011.4 |
| 20260503194002 | 55 | 248 | 10.4 | 17.4 | 0.00 | 0.00 | 0.00 | 42 | 1011.4 |
| 20260503193500 | 55 | 232 | 6.1 | 14.8 | 0.00 | 0.00 | 0.00 | 44 | 1011.5 |
| 20260503193112 | 55 | 277 | 7.0 | 17.4 | 0.00 | 0.00 | 0.00 | 44 | 1011.6 |
| 20260503192600 | 55 | 244 | 9.6 | 17.4 | 0.00 | 0.00 | 0.00 | 46 | 1011.7 |
| 20260503192059 | 55 | 279 | 7.8 | 17.4 | 0.00 | 0.00 | 0.00 | 47 | 1011.7 |
| 20260503191608 | 54 | 198 | 10.4 | 18.2 | 0.00 | 0.00 | 0.00 | 46 | 1011.7 |
| 20260503191058 | 54 | 234 | 10.4 | 16.5 | 0.00 | 0.00 | 0.00 | 47 | 1011.9 |
| 20260503190557 | 54 | 293 | 6.1 | 15.6 | 0.00 | 0.00 | 0.00 | 44 | 1011.8 |
| 20260503190059 | 54 | 225 | 7.0 | 15.6 | 0.00 | 0.00 | 0.00 | 47 | 1012.0 |
| 20260503185100 | 54 | 294 | 8.7 | 14.8 | 0.00 | 0.00 | 0.00 | 45 | 1012.2 |
| 20260503184608 | 54 | 221 | 8.7 | 14.8 | 0.00 | 0.00 | 0.00 | 47 | 1012.2 |
| 20260503184055 | 54 | 269 | 5.2 | 13.0 | 0.00 | 0.00 | 0.00 | 47 | 1012.3 |
| 20260503183555 | 54 | 248 | 6.1 | 16.5 | 0.00 | 0.00 | 0.00 | 47 | 1012.3 |
| 20260503183108 | 54 | 261 | 9.6 | 17.4 | 0.00 | 0.00 | 0.00 | 46 | 1012.3 |
| 20260503182556 | 54 | 198 | 8.7 | 17.4 | 0.00 | 0.00 | 0.00 | 49 | 1012.5 |
| 20260503182053 | 52 | 245 | 11.3 | 17.4 | 0.00 | 0.00 | 0.00 | 47 | 1012.5 |
| 20260503181606 | 52 | 249 | 8.7 | 15.6 | 0.00 | 0.00 | 0.00 | 47 | 1012.6 |
| 20260503181051 | 52 | 236 | 6.1 | 17.4 | 0.00 | 0.00 | 0.00 | 50 | 1012.7 |
| 20260503180551 | 52 | 255 | 11.3 | 17.4 | 0.00 | 0.00 | 0.00 | 49 | 1012.7 |
| 20260503180050 | 52 | 265 | 8.7 | 23.5 | 0.00 | 0.00 | 0.00 | 48 | 1012.8 |
| 20260503175051 | 52 | 206 | 8.7 | 16.5 | 0.00 | 0.00 | 0.00 | 48 | 1012.9 |
| 20260503174548 | 52 | 237 | 8.7 | 15.6 | 0.00 | 0.00 | 0.00 | 50 | 1013.0 |
| 20260503174048 | 52 | 225 | 9.6 | 20.0 | 0.00 | 0.00 | 0.00 | 51 | 1013.0 |
| 20260503173547 | 52 | 199 | 11.3 | 19.1 | 0.00 | 0.00 | 0.00 | 49 | 1013.0 |
| 20260503173056 | 52 | 224 | 8.7 | 14.8 | 0.00 | 0.00 | 0.00 | 50 | 1013.1 |
| 20260503172546 | 51 | 231 | 5.2 | 13.0 | 0.00 | 0.00 | 0.00 | 52 | 1013.2 |
| 20260503172044 | 51 | 239 | 7.0 | 14.8 | 0.00 | 0.00 | 0.00 | 50 | 1013.3 |
| 20260503171544 | 51 | 243 | 9.6 | 14.8 | 0.00 | 0.00 | 0.00 | 50 | 1013.3 |
| 20260503171044 | 51 | 279 | 7.8 | 14.8 | 0.00 | 0.00 | 0.00 | 49 | 1013.4 |
| 20260503170543 | 51 | 286 | 9.6 | 14.8 | 0.00 | 0.00 | 0.00 | 50 | 1013.5 |
| 20260503150529 | 47 | 202 | 7.0 | 13.9 | 0.00 | 0.00 | 0.00 | 51 | 1014.4 |
| 20260503131013 | 40 | 275 | 3.5 | 7.8 | 0.00 | 0.00 | 0.00 | 78 | 1015.2 |
| 20260503130508 | 39 | 245 | 4.3 | 9.6 | 0.00 | 0.00 | 0.00 | 77 | 1015.1 |
| 20260503110548 | 33 | 200 | 5.2 | 7.8 | 0.00 | 0.00 | 0.00 | 87 | 1014.5 |
| 20260503081609 | 32 | 360 | 3.5 | 6.1 | 0.00 | 0.00 | 0.00 | 85 | 1014.3 |
| 20260503081041 | 32 | 209 | 2.6 | 6.1 | 0.00 | 0.00 | 0.00 | 85 | 1014.3 |
| 20260503080540 | 32 | 211 | 3.5 | 6.1 | 0.00 | 0.00 | 0.00 | 84 | 1014.4 |
| 20260503072537 | 33 | 243 | 2.6 | 5.2 | 0.00 | 0.00 | 0.00 | 83 | 1014.3 |
| 20260503072037 | 33 | 223 | 1.7 | 3.5 | 0.00 | 0.00 | 0.00 | 83 | 1014.2 |
| 20260503071537 | 33 | 234 | 0.9 | 3.5 | 0.00 | 0.00 | 0.00 | 83 | 1014.2 |
| 20260503071036 | 33 | 234 | 1.7 | 4.3 | 0.00 | 0.00 | 0.00 | 83 | 1014.2 |
| 20260503070536 | 33 | 240 | 2.6 | 4.3 | 0.00 | 0.00 | 0.00 | 84 | 1014.2 |
| 20260503055032 | 33 | 259 | 1.7 | 4.3 | 0.00 | 0.00 | 0.00 | 84 | 1014.6 |
| 20260503054538 | 33 | 263 | 2.6 | 4.3 | 0.00 | 0.00 | 0.00 | 84 | 1014.7 |
| 20260503054031 | 33 | 254 | 1.7 | 4.3 | 0.00 | 0.00 | 0.00 | 85 | 1014.7 |
| 20260503053531 | 33 | 240 | 1.7 | 5.2 | 0.00 | 0.00 | 0.00 | 85 | 1014.7 |
| 20260503053033 | 33 | 259 | 2.6 | 5.2 | 0.00 | 0.00 | 0.00 | 85 | 1014.7 |
| 20260503052532 | 33 | 236 | 2.6 | 4.3 | 0.00 | 0.00 | 0.00 | 85 | 1014.7 |
| 20260503052031 | 33 | 240 | 1.7 | 4.3 | 0.00 | 0.00 | 0.00 | 85 | 1014.8 |
| 20260503051531 | 33 | 242 | 1.7 | 4.3 | 0.00 | 0.00 | 0.00 | 85 | 1014.8 |
| 20260503051030 | 33 | 234 | 1.7 | 3.5 | 0.00 | 0.00 | 0.00 | 84 | 1014.8 |
| 20260503050530 | 33 | 234 | 1.7 | 4.3 | 0.00 | 0.00 | 0.00 | 84 | 1014.8 |
| 20260503050036 | 33 | 227 | 1.7 | 4.3 | 0.00 | 0.00 | 0.00 | 84 | 1014.8 |
| 20260503045030 | 33 | 248 | 1.7 | 4.3 | 0.00 | 0.00 | 0.00 | 84 | 1014.9 |
| 20260503044530 | 33 | 229 | 2.6 | 4.3 | 0.00 | 0.00 | 0.00 | 84 | 1014.9 |
| 20260503044029 | 33 | 246 | 1.7 | 4.3 | 0.00 | 0.00 | 0.00 | 84 | 1014.9 |
| 20260503043529 | 33 | 225 | 2.6 | 4.3 | 0.00 | 0.00 | 0.00 | 84 | 1014.9 |
| 20260503043029 | 33 | 266 | 1.7 | 5.2 | 0.00 | 0.00 | 0.00 | 83 | 1015.0 |
| 20260503042529 | 33 | 240 | 2.6 | 6.1 | 0.00 | 0.00 | 0.00 | 84 | 1015.0 |
| 20260503042029 | 33 | 228 | 1.7 | 6.1 | 0.00 | 0.00 | 0.00 | 83 | 1014.9 |
| 20260503041529 | 33 | 240 | 1.7 | 4.3 | 0.00 | 0.00 | 0.00 | 83 | 1015.0 |
| 20260503041028 | 33 | 250 | 1.7 | 4.3 | 0.00 | 0.00 | 0.00 | 83 | 1014.9 |
| 20260503040528 | 33 | 240 | 1.7 | 4.3 | 0.00 | 0.00 | 0.00 | 83 | 1015.0 |
| 20260503040034 | 33 | 240 | 1.7 | 4.3 | 0.00 | 0.00 | 0.00 | 83 | 1015.0 |
| 20260503035029 | 34 | 238 | 1.7 | 3.5 | 0.00 | 0.00 | 0.00 | 82 | 1015.0 |
| 20260503034536 | 34 | 239 | 1.7 | 3.5 | 0.00 | 0.00 | 0.00 | 82 | 1015.0 |
| 20260503034029 | 34 | 242 | 0.9 | 4.3 | 0.00 | 0.00 | 0.00 | 82 | 1015.0 |
| 20260503033528 | 34 | 242 | 1.7 | 5.2 | 0.00 | 0.00 | 0.00 | 81 | 1015.0 |
| 20260503033030 | 34 | 239 | 2.6 | 5.2 | 0.00 | 0.00 | 0.00 | 82 | 1015.0 |
| 20260503032528 | 34 | 223 | 2.6 | 5.2 | 0.00 | 0.00 | 0.00 | 81 | 1015.0 |
| 20260503032028 | 34 | 244 | 0.9 | 2.6 | 0.00 | 0.00 | 0.00 | 81 | 1015.1 |
| 20260503031528 | 34 | 236 | 0.9 | 4.3 | 0.00 | 0.00 | 0.00 | 81 | 1015.0 |
| 20260503031031 | 34 | 229 | 1.7 | 5.2 | 0.00 | 0.00 | 0.00 | 81 | 1015.1 |
| 20260503030527 | 34 | 225 | 1.7 | 5.2 | 0.00 | 0.00 | 0.00 | 81 | 1015.1 |
| 20260503030028 | 34 | 254 | 0.9 | 3.5 | 0.00 | 0.00 | 0.00 | 81 | 1015.2 |
| 20260503025027 | 34 | 232 | 0.9 | 4.3 | 0.00 | 0.00 | 0.00 | 80 | 1015.3 |
| 20260503024527 | 35 | 224 | 0.9 | 3.5 | 0.00 | 0.00 | 0.00 | 80 | 1015.2 |